Regional Weather Roundup
Issued by NWS

Home | Current Version | Previous Version | Text Only | Print | Product List | Glossary Off
Versions: 1 2 3 4 5 6 7 8 9 10 11 12 13 14 15 16 17 18 19 20 21 22 23 24 25 26 27 28 29 30 31 32 33 34 35 36 37 38 39 40 41 42 43 44 45 46 47 48 49 50

000
ASUS43 KOAX 190902
RWRNE

WEATHER ROUNDUP FOR NEBRASKA
NATIONAL WEATHER SERVICE OMAHA NE
400 AM CDT SUN APR 19 2015

NOTES: SATELLITE DATA IS BEING USED TO AUGMENT CLOUD COVER ABOVE
       12000 FEET.
       "FAIR" INDICATES FEW OR NO CLOUDS BELOW 12,000 FEET WITH NO
       SIGNIFICANT WEATHER AND/OR OBSTRUCTIONS TO VISIBILITY.

  * THESE STATIONS DO NOT REPORT WEATHER SUCH AS RAIN...SNOW OR FOG.

NEZ001>004-019>022-054>056-191000-
NEBRASKA PANHANDLE

CITY           SKY/WX    TMP DP  RH WIND       PRES   REMARKS
SCOTTSBLUFF    CLOUDY    44 N/A N/A NW22G30   30.03R
ALLIANCE       CLOUDY    42  36  79 N23G32    29.97S
CHADRON        MOCLDY    44  34  67 N9        30.04R
SIDNEY         LGT RAIN  42  38  85 N24G39    29.97R
$$

NEZ057>060-069>072-079>082-191000-
SOUTHWEST NEBRASKA

CITY           SKY/WX    TMP DP  RH WIND       PRES   REMARKS
NORTH PLATTE   LGT RAIN  49  46  90 NW14      29.85F
IMPERIAL       LGT RAIN  47  44  90 N10       29.88S
LEXINGTON      CLOUDY    52  49  90 NW9       29.81S
MCCOOK         CLOUDY    51  46  83 N16       29.82F
$$

NEZ005>010-023>029-035>040-094-191000-
NORTH CENTRAL NEBRASKA

CITY           SKY/WX    TMP DP  RH WIND       PRES   REMARKS
VALENTINE      CLOUDY    46  44  93 N15       29.90R
AINSWORTH      CLOUDY    47  45  94 N17G23    29.88R
BROKEN BOW     CLOUDY    53  46  77 N15       29.80S
ORD            CLOUDY    52  48  86 NW17      29.78F
$$

NEZ041-046>049-061>064-073>077-083>087-191000-
SOUTH CENTRAL NEBRASKA

CITY           SKY/WX    TMP DP  RH WIND       PRES   REMARKS
GRAND ISLAND   CLOUDY    52  47  83 W9        29.76F
HASTINGS       CLOUDY    52  48  86 NW7       29.76F
KEARNEY *      CLOUDY    52  46  82 NW6       29.79F
YORK           CLOUDY    52  48  87 N3        29.77S
$$

NEZ011>018-030>034-042>045-191000-
NORTHEAST NEBRASKA

CITY           SKY/WX    TMP DP  RH WIND       PRES   REMARKS
BLAIR          CLOUDY    55  54  95 CALM      29.73F FOG
COLUMBUS *     CLOUDY    54  45  71 NW9       29.76F
FREMONT        FOG       55  54  96 CALM      29.74F VSB 1/4
TEKAMAH        CLOUDY    56  55  97 CALM      29.73F FOG
$$

NEZ050>053-065>068-078-088>093-191000-
SOUTHEAST NEBRASKA

CITY           SKY/WX    TMP DP  RH WIND       PRES   REMARKS
LINCOLN        CLOUDY    56  51  84 NW5       29.76S
OMAHA EPPLEY   CLOUDY    56  55  97 SE6       29.74F
FALLS CITY     MOCLDY    52  50  93 SE3       29.73F
$$

NEZ044-045-051>053-067-191000-
OMAHA AREA

CITY           SKY/WX    TMP DP  RH WIND       PRES   REMARKS
OMAHA EPPLEY   CLOUDY    56  55  97 SE6       29.74F
BLAIR          CLOUDY    55  54  95 CALM      29.73F FOG
FREMONT        FOG       55  54  96 CALM      29.74F VSB 1/4
OFFUTT AFB     FOG       56  56  99 E5        29.73F VSB 1/4
$$



USA.gov is the U.S. government's official web portal to all federal, state and local government web resources and services.